Overview Statistics Trail Chart Weather Telemetry Raw packets
 

This is the latest recevied weather packets stored in our database for station/object 4S6DRJ-13. If no packets are shown the sender has not sent any weather packets the latest 10 day(s).

<< 505 506 507 508 509 510 511 >>
Time Temp. Humidity Pressure Rain* Wind** Luminosity Snow
1787677729 27.22° C 88% 1011.9 hPa 0 mm 0 m/s 0 W/m² -
1787677668 27.22° C 88% 1012.1 hPa 0 mm 0 m/s 0 W/m² -
1787677607 27.22° C 88% 1012 hPa 0 mm 0.45 m/s, 191° 0 W/m² -
1787677546 27.22° C 88% 1011.9 hPa 0 mm 0.45 m/s, 190° 0 W/m² -
1787677485 27.22° C 87% 1012 hPa 0 mm 0.89 m/s, 207° 0 W/m² -
1787677424 27.22° C 87% 1011.9 hPa 0 mm 0.45 m/s, 210° 0 W/m² -
1787677363 27.22° C 87% 1012 hPa 0 mm 0.45 m/s, 213° 0 W/m² -
1787677302 27.22° C 87% 1011.9 hPa 0 mm 0.89 m/s, 219° 0 W/m² -
1787677241 27.22° C 87% 1011.9 hPa 0 mm 0.45 m/s, 184° 0 W/m² -
1787677180 27.22° C 87% 1011.9 hPa 0 mm 1.79 m/s, 222° 0 W/m² -
1787677119 27.22° C 87% 1011.7 hPa 0 mm 0.45 m/s, 191° 0 W/m² -
1787677058 27.22° C 87% 1011.8 hPa 0 mm 0.89 m/s, 167° 0 W/m² -
1787676997 27.22° C 87% 1011.7 hPa 0 mm 0.45 m/s, 191° 0 W/m² -
1787676936 27.22° C 87% 1011.8 hPa 0 mm 0.45 m/s, 177° 0 W/m² -
1787676876 27.22° C 87% 1011.7 hPa 0 mm 0.45 m/s, 147° 0 W/m² -
1787676814 27.22° C 86% 1011.9 hPa 0 mm 0.45 m/s, 240° 0 W/m² -
1787676753 27.78° C 86% 1011.8 hPa 0 mm 0 m/s 0 W/m² -
1787676692 27.78° C 86% 1011.7 hPa 0 mm 0.89 m/s, 203° 0 W/m² -
1787676631 27.78° C 86% 1011.7 hPa 0 mm 0.89 m/s, 233° 0 W/m² -
1787676570 27.78° C 86% 1011.8 hPa 0 mm 1.34 m/s, 253° 0 W/m² -
1787676509 27.78° C 86% 1011.8 hPa 0 mm 0.89 m/s, 210° 0 W/m² -
1787676448 27.78° C 86% 1011.8 hPa 0 mm 0.89 m/s, 225° 0 W/m² -
1787676387 27.78° C 86% 1011.8 hPa 0 mm 0.89 m/s, 192° 0 W/m² -
1787676326 27.78° C 85% 1011.7 hPa 0 mm 0.89 m/s, 207° 0 W/m² -
1787676265 27.78° C 85% 1011.8 hPa 0 mm 0.89 m/s, 233° 0 W/m² -

* Rain latest hour (hover to see other rain measurements)
** Current wind speed in m/s (hover to see current wind gust speed)